| time (UTC) | temp F | wind direction | speed knots | gust knots | rain 1hr in | rain 24hr in | rain mn in | humidity % | barometer mb |
| 20260504000233 | 54 | 110 | 0.9 | 0.9 | 0.00 | 0.10 | 0.10 | 71 | 1005.5 |
| 20260503235729 | 55 | 97 | 0.9 | 0.9 | 0.00 | 0.10 | 0.10 | 64 | 1005.6 |
| 20260503235226 | 56 | 248 | 0.0 | 0.9 | 0.00 | 0.10 | 0.10 | 59 | 1005.8 |
| 20260503234724 | 56 | 196 | 0.9 | 1.7 | 0.00 | 0.10 | 0.10 | 57 | 1005.2 |
| 20260503234222 | 57 | 203 | 0.0 | 0.9 | 0.00 | 0.10 | 0.10 | 54 | 1005.3 |
| 20260503233719 | 57 | 290 | 1.7 | 1.7 | 0.00 | 0.10 | 0.10 | 52 | 1005.0 |
| 20260503233214 | 57 | 106 | 1.7 | 1.7 | 0.00 | 0.10 | 0.10 | 52 | 1005.2 |
| 20260503232711 | 57 | 222 | 0.0 | 0.9 | 0.00 | 0.10 | 0.10 | 52 | 1005.0 |
| 20260503232208 | 58 | 292 | 2.6 | 6.1 | 0.00 | 0.10 | 0.10 | 52 | 1005.1 |
| 20260503231707 | 58 | 187 | 1.7 | 1.7 | 0.00 | 0.10 | 0.10 | 52 | 1004.9 |
| 20260503231203 | 58 | 218 | 0.9 | 0.9 | 0.00 | 0.10 | 0.10 | 52 | 1004.8 |
| 20260503230659 | 58 | 172 | 0.0 | 0.9 | 0.00 | 0.10 | 0.10 | 52 | 1004.8 |
| 20260503230156 | 59 | 222 | 0.9 | 0.9 | 0.00 | 0.10 | 0.10 | 52 | 1004.9 |
| 20260503225654 | 59 | 235 | 0.9 | 0.9 | 0.00 | 0.10 | 0.10 | 51 | 1004.9 |
| 20260503225153 | 59 | 232 | 7.8 | 9.6 | 0.00 | 0.10 | 0.10 | 50 | 1004.7 |
| 20260503224651 | 59 | 160 | 0.0 | 0.0 | 0.00 | 0.10 | 0.10 | 52 | 1004.7 |
| 20260503224149 | 60 | 233 | 2.6 | 2.6 | 0.00 | 0.10 | 0.10 | 50 | 1004.7 |
| 20260503223647 | 61 | 200 | 1.7 | 1.7 | 0.00 | 0.10 | 0.10 | 49 | 1005.0 |
| 20260503223143 | 60 | 197 | 1.7 | 2.6 | 0.00 | 0.10 | 0.10 | 50 | 1004.6 |
| 20260503222640 | 60 | 223 | 0.9 | 1.7 | 0.00 | 0.10 | 0.10 | 50 | 1004.9 |
| 20260503222137 | 60 | 259 | 1.7 | 1.7 | 0.00 | 0.10 | 0.10 | 50 | 1005.0 |
| 20260503221636 | 60 | 307 | 3.5 | 7.0 | 0.00 | 0.10 | 0.10 | 51 | 1004.9 |
| 20260503221133 | 61 | 210 | 1.7 | 2.6 | 0.00 | 0.10 | 0.10 | 51 | 1004.8 |
| 20260503220629 | 61 | 241 | 2.6 | 5.2 | 0.00 | 0.10 | 0.10 | 50 | 1004.9 |
| 20260503220126 | 61 | 209 | 3.5 | 5.2 | 0.00 | 0.10 | 0.10 | 49 | 1005.0 |
| 20260503215623 | 60 | 327 | 1.7 | 1.7 | 0.00 | 0.10 | 0.10 | 51 | 1005.1 |
| 20260503215120 | 60 | 206 | 0.0 | 0.9 | 0.00 | 0.10 | 0.10 | 51 | 1005.1 |
| 20260503214619 | 60 | 234 | 3.5 | 5.2 | 0.00 | 0.10 | 0.10 | 50 | 1005.4 |
| 20260503214115 | 60 | 206 | 1.7 | 2.6 | 0.00 | 0.10 | 0.10 | 51 | 1005.4 |
| 20260503213614 | 60 | 283 | 1.7 | 2.6 | 0.00 | 0.10 | 0.10 | 51 | 1005.4 |
| 20260503213110 | 61 | 244 | 2.6 | 5.2 | 0.00 | 0.10 | 0.10 | 50 | 1005.3 |
| 20260503212608 | 61 | 273 | 2.6 | 2.6 | 0.00 | 0.10 | 0.10 | 51 | 1005.4 |
| 20260503212105 | 59 | 209 | 0.9 | 0.9 | 0.00 | 0.10 | 0.10 | 56 | 1005.3 |
| 20260503211602 | 60 | 81 | 1.7 | 1.7 | 0.00 | 0.10 | 0.10 | 56 | 1005.6 |
| 20260503211057 | 60 | 191 | 0.9 | 0.9 | 0.00 | 0.10 | 0.10 | 54 | 1005.7 |
| 20260503210554 | 60 | 214 | 1.7 | 2.6 | 0.00 | 0.10 | 0.10 | 54 | 1005.8 |
| 20260503210049 | 60 | 241 | 1.7 | 2.6 | 0.00 | 0.10 | 0.10 | 54 | 1006.0 |
| 20260503205547 | 58 | 252 | 2.6 | 3.5 | 0.00 | 0.10 | 0.10 | 58 | 1006.0 |
| 20260503205043 | 58 | 40 | 0.9 | 1.7 | 0.00 | 0.10 | 0.10 | 59 | 1006.2 |
| 20260503204540 | 57 | 223 | 3.5 | 5.2 | 0.00 | 0.10 | 0.10 | 60 | 1006.2 |
| 20260503204037 | 59 | 194 | 2.6 | 3.5 | 0.00 | 0.10 | 0.10 | 58 | 1006.1 |
| 20260503203534 | 59 | 213 | 3.5 | 3.5 | 0.00 | 0.10 | 0.10 | 58 | 1006.2 |
| 20260503203031 | 60 | 244 | 2.6 | 3.5 | 0.00 | 0.10 | 0.10 | 58 | 1006.2 |
| 20260503202529 | 59 | 173 | 1.7 | 2.6 | 0.00 | 0.10 | 0.10 | 60 | 1006.4 |
| 20260503202027 | 60 | 225 | 0.0 | 0.9 | 0.00 | 0.10 | 0.10 | 58 | 1006.6 |
| 20260503201525 | 59 | 209 | 0.9 | 0.9 | 0.00 | 0.10 | 0.10 | 60 | 1006.6 |
| 20260503201022 | 59 | 209 | 2.6 | 2.6 | 0.00 | 0.10 | 0.10 | 61 | 1006.9 |
| 20260503200518 | 58 | 279 | 4.3 | 7.0 | 0.00 | 0.10 | 0.10 | 61 | 1006.8 |
| 20260503200015 | 59 | 246 | 2.6 | 3.5 | 0.00 | 0.10 | 0.10 | 59 | 1007.0 |
| 20260503195512 | 59 | 205 | 1.7 | 3.5 | 0.00 | 0.10 | 0.10 | 62 | 1006.9 |
| 20260503195009 | 58 | 193 | 0.0 | 0.9 | 0.00 | 0.10 | 0.10 | 63 | 1007.0 |
| 20260503194506 | 58 | 247 | 3.5 | 3.5 | 0.00 | 0.10 | 0.10 | 63 | 1007.1 |
| 20260503194001 | 58 | 223 | 2.6 | 3.5 | 0.00 | 0.10 | 0.10 | 63 | 1007.3 |
| 20260503193457 | 58 | 250 | 3.5 | 5.2 | 0.00 | 0.10 | 0.10 | 61 | 1007.1 |
| 20260503192952 | 56 | 227 | 0.9 | 0.9 | 0.00 | 0.10 | 0.10 | 63 | 1007.1 |
| 20260503192449 | 57 | 245 | 1.7 | 2.6 | 0.00 | 0.10 | 0.10 | 62 | 1007.3 |
| 20260503191944 | 56 | 214 | 0.9 | 0.9 | 0.00 | 0.10 | 0.10 | 65 | 1007.6 |
| 20260503191442 | 54 | 270 | 1.7 | 1.7 | 0.00 | 0.10 | 0.10 | 69 | 1007.6 |
| 20260503190938 | 53 | 192 | 0.9 | 0.9 | 0.00 | 0.10 | 0.10 | 74 | 1007.7 |
| 20260503190436 | 53 | 179 | 1.7 | 2.6 | 0.00 | 0.10 | 0.10 | 72 | 1007.9 |
| 20260503185933 | 52 | 204 | 0.9 | 1.7 | 0.00 | 0.10 | 0.10 | 74 | 1007.8 |
| 20260503185429 | 51 | 195 | 1.7 | 1.7 | 0.00 | 0.10 | 0.10 | 75 | 1007.6 |
| 20260503184928 | 51 | 246 | 0.9 | 1.7 | 0.00 | 0.10 | 0.10 | 75 | 1008.0 |
| 20260503184425 | 51 | 31 | 0.9 | 1.7 | 0.00 | 0.10 | 0.10 | 77 | 1008.0 |
| 20260503183922 | 51 | 215 | 0.9 | 1.7 | 0.00 | 0.10 | 0.10 | 76 | 1008.0 |
| 20260503183418 | 50 | 174 | 0.0 | 0.0 | 0.00 | 0.10 | 0.10 | 76 | 1007.8 |
| 20260503182915 | 50 | 265 | 1.7 | 1.7 | 0.00 | 0.10 | 0.10 | 75 | 1007.9 |
| 20260503182414 | 50 | 210 | 1.7 | 1.7 | 0.00 | 0.10 | 0.10 | 77 | 1008.2 |
| 20260503181911 | 50 | 241 | 0.9 | 0.9 | 0.00 | 0.10 | 0.10 | 74 | 1008.2 |
| 20260503181408 | 50 | 198 | 0.9 | 0.9 | 0.00 | 0.10 | 0.10 | 73 | 1008.5 |
| 20260503180904 | 50 | 275 | 1.7 | 2.6 | 0.00 | 0.10 | 0.10 | 72 | 1008.5 |
| 20260503180402 | 50 | 221 | 0.9 | 0.9 | 0.00 | 0.10 | 0.10 | 71 | 1008.3 |
| 20260503175858 | 50 | 177 | 0.0 | 0.0 | 0.00 | 0.10 | 0.10 | 72 | 1008.3 |
| 20260503175357 | 50 | 189 | 1.7 | 2.6 | 0.00 | 0.10 | 0.10 | 72 | 1008.5 |
| 20260503174852 | 50 | 213 | 0.9 | 0.9 | 0.00 | 0.10 | 0.10 | 73 | 1008.6 |
| 20260503174351 | 50 | 199 | 0.9 | 0.9 | 0.00 | 0.10 | 0.10 | 71 | 1008.5 |
| 20260503173851 | 50 | 192 | 0.9 | 1.7 | 0.00 | 0.10 | 0.10 | 69 | 1008.5 |
| 20260503173347 | 50 | 236 | 0.9 | 0.9 | 0.00 | 0.10 | 0.10 | 68 | 1008.7 |
| 20260503172844 | 50 | 198 | 1.7 | 1.7 | 0.00 | 0.10 | 0.10 | 68 | 1008.6 |
| 20260503172342 | 51 | 228 | 0.0 | 0.0 | 0.00 | 0.10 | 0.10 | 70 | 1008.4 |
| 20260503171837 | 51 | 243 | 1.7 | 2.6 | 0.00 | 0.10 | 0.10 | 69 | 1008.6 |
| 20260503171335 | 51 | 202 | 0.9 | 0.9 | 0.00 | 0.10 | 0.10 | 72 | 1008.7 |
| 20260503170832 | 50 | 202 | 0.9 | 0.9 | 0.00 | 0.10 | 0.10 | 69 | 1008.8 |
| 20260503170328 | 51 | 244 | 0.9 | 1.7 | 0.00 | 0.10 | 0.10 | 69 | 1008.9 |
| 20260503150721 | 44 | 205 | 0.0 | 0.9 | 0.00 | 0.09 | 0.09 | 90 | 1009.9 |
| 20260503150217 | 44 | 194 | 0.0 | 0.0 | 0.00 | 0.09 | 0.09 | 91 | 1009.8 |
| 20260503140141 | 43 | 183 | 0.0 | 0.0 | 0.05 | 0.05 | 0.05 | 91 | 1009.8 |
| 20260503131111 | 42 | 209 | 0.0 | 0.9 | 0.05 | 0.03 | 0.03 | 88 | 1010.4 |
| 20260503130608 | 42 | 186 | 0.0 | 0.0 | 0.05 | 0.03 | 0.03 | 88 | 1010.4 |
| 20260503130106 | 42 | 341 | 1.7 | 2.6 | 0.07 | 0.02 | 0.02 | 86 | 1010.3 |
| 20260503110458 | 40 | 186 | 0.0 | 0.0 | 0.00 | 0.00 | 0.00 | 77 | 1010.3 |
| 20260503090349 | 41 | 185 | 0.0 | 0.9 | 0.00 | 0.00 | 0.00 | 61 | 1011.2 |
| 20260503081317 | 41 | 172 | 0.0 | 0.0 | 0.00 | 0.00 | 0.00 | 58 | 1011.5 |
| 20260503080813 | 41 | 172 | 0.0 | 0.0 | 0.00 | 0.00 | 0.00 | 58 | 1011.4 |
| 20260503080311 | 41 | 135 | 0.0 | 0.0 | 0.00 | 0.00 | 0.00 | 57 | 1011.7 |
| 20260503072747 | 41 | 203 | 0.0 | 0.9 | 0.00 | 0.00 | 0.00 | 56 | 1011.7 |
| 20260503072244 | 40 | 222 | 0.0 | 0.0 | 0.00 | 0.00 | 0.00 | 57 | 1011.8 |
| 20260503071740 | 40 | 222 | 0.0 | 0.0 | 0.00 | 0.00 | 0.00 | 57 | 1011.8 |
| 20260503071237 | 40 | 218 | 0.9 | 0.9 | 0.00 | 0.00 | 0.00 | 57 | 1012.0 |
| 20260503070733 | 40 | 197 | 1.7 | 2.6 | 0.00 | 0.00 | 0.00 | 57 | 1011.9 |
| 20260503070232 | 40 | 218 | 0.9 | 0.9 | 0.00 | 0.00 | 0.00 | 57 | 1012.0 |
| 20260503060156 | 36 | 188 | 0.0 | 0.9 | 0.00 | 0.00 | 0.00 | 68 | 1013.1 |
| 20260503054643 | 35 | 177 | 0.0 | 0.0 | 0.00 | 0.00 | 0.00 | 72 | 1013.3 |
| 20260503054141 | 35 | 172 | 0.0 | 0.0 | 0.00 | 0.00 | 0.00 | 73 | 1013.3 |
| 20260503053639 | 35 | 172 | 0.0 | 0.0 | 0.00 | 0.00 | 0.00 | 71 | 1013.4 |
| 20260503053137 | 35 | 171 | 0.0 | 0.0 | 0.00 | 0.00 | 0.00 | 70 | 1013.5 |
| 20260503052633 | 35 | 89 | 0.9 | 0.9 | 0.00 | 0.00 | 0.00 | 68 | 1013.6 |
| 20260503052130 | 35 | 201 | 0.0 | 0.0 | 0.00 | 0.00 | 0.00 | 71 | 1013.8 |
| 20260503051625 | 35 | 201 | 0.0 | 0.0 | 0.00 | 0.00 | 0.00 | 71 | 1013.8 |
| 20260503051123 | 35 | 201 | 0.0 | 0.0 | 0.00 | 0.00 | 0.00 | 71 | 1013.8 |
| 20260503050619 | 36 | 201 | 0.0 | 0.0 | 0.00 | 0.00 | 0.00 | 70 | 1013.9 |
| 20260503050116 | 36 | 201 | 0.0 | 0.0 | 0.00 | 0.00 | 0.00 | 71 | 1014.0 |
| 20260503045613 | 36 | 201 | 0.0 | 0.0 | 0.00 | 0.00 | 0.00 | 71 | 1014.1 |
| 20260503045110 | 36 | 201 | 0.0 | 0.0 | 0.00 | 0.00 | 0.00 | 71 | 1014.2 |
| 20260503044607 | 36 | 202 | 0.0 | 0.0 | 0.00 | 0.00 | 0.00 | 71 | 1014.3 |
| 20260503044105 | 36 | 202 | 0.0 | 0.0 | 0.00 | 0.00 | 0.00 | 71 | 1014.3 |
| 20260503043600 | 36 | 202 | 0.0 | 0.0 | 0.00 | 0.00 | 0.00 | 71 | 1014.1 |
| 20260503043058 | 36 | 202 | 0.0 | 0.0 | 0.00 | 0.00 | 0.00 | 72 | 1014.5 |
| 20260503042555 | 36 | 203 | 0.0 | 0.0 | 0.00 | 0.00 | 0.00 | 73 | 1014.4 |
| 20260503042051 | 36 | 203 | 0.0 | 0.0 | 0.00 | 0.00 | 0.00 | 72 | 1014.5 |
| 20260503041547 | 36 | 202 | 0.0 | 0.0 | 0.00 | 0.00 | 0.00 | 72 | 1014.4 |
| 20260503041045 | 36 | 203 | 0.0 | 0.0 | 0.00 | 0.00 | 0.00 | 72 | 1014.6 |
| 20260503040542 | 36 | 202 | 0.0 | 0.0 | 0.00 | 0.00 | 0.00 | 72 | 1014.8 |
| 20260503040040 | 36 | 202 | 0.0 | 0.0 | 0.00 | 0.00 | 0.00 | 72 | 1014.7 |
| 20260503035536 | 36 | 202 | 0.0 | 0.0 | 0.00 | 0.00 | 0.00 | 72 | 1014.9 |
| 20260503035034 | 36 | 202 | 0.0 | 0.0 | 0.00 | 0.00 | 0.00 | 72 | 1014.7 |
| 20260503034531 | 36 | 202 | 0.0 | 0.0 | 0.00 | 0.00 | 0.00 | 73 | 1014.9 |
| 20260503034028 | 37 | 203 | 0.0 | 0.0 | 0.00 | 0.00 | 0.00 | 71 | 1015.0 |
| 20260503033525 | 37 | 202 | 0.0 | 0.0 | 0.00 | 0.00 | 0.00 | 70 | 1015.1 |
| 20260503033023 | 37 | 202 | 0.0 | 0.0 | 0.00 | 0.00 | 0.00 | 68 | 1015.3 |
| 20260503032521 | 37 | 202 | 0.0 | 0.0 | 0.00 | 0.00 | 0.00 | 68 | 1015.3 |
| 20260503032019 | 37 | 202 | 0.0 | 0.0 | 0.00 | 0.00 | 0.00 | 67 | 1015.0 |
| 20260503031517 | 37 | 202 | 0.0 | 0.0 | 0.00 | 0.00 | 0.00 | 67 | 1015.4 |
| 20260503031013 | 37 | 202 | 0.0 | 0.0 | 0.00 | 0.00 | 0.00 | 68 | 1015.5 |
| 20260503030509 | 38 | 202 | 0.0 | 0.0 | 0.00 | 0.00 | 0.00 | 68 | 1015.4 |
| 20260503030007 | 38 | 202 | 0.0 | 0.0 | 0.00 | 0.00 | 0.00 | 68 | 1015.5 |
| 20260503025503 | 38 | 202 | 0.0 | 0.0 | 0.00 | 0.00 | 0.00 | 67 | 1015.6 |
| 20260503025001 | 38 | 202 | 0.0 | 0.0 | 0.00 | 0.00 | 0.00 | 68 | 1015.5 |
| 20260503024457 | 38 | 202 | 0.0 | 0.0 | 0.00 | 0.00 | 0.00 | 67 | 1015.6 |
| 20260503023955 | 39 | 203 | 0.0 | 0.0 | 0.00 | 0.00 | 0.00 | 67 | 1015.5 |
| 20260503023451 | 39 | 202 | 0.0 | 0.0 | 0.00 | 0.00 | 0.00 | 66 | 1015.6 |
| 20260503022948 | 39 | 203 | 0.0 | 0.0 | 0.00 | 0.00 | 0.00 | 65 | 1015.5 |
| 20260503022443 | 39 | 203 | 0.0 | 0.0 | 0.00 | 0.00 | 0.00 | 62 | 1015.5 |
| 20260503021939 | 40 | 203 | 0.0 | 0.0 | 0.00 | 0.00 | 0.00 | 61 | 1015.4 |
| 20260503021435 | 40 | 203 | 0.0 | 0.0 | 0.00 | 0.00 | 0.00 | 60 | 1015.6 |
| 20260503020933 | 40 | 202 | 0.0 | 0.0 | 0.00 | 0.00 | 0.00 | 58 | 1015.3 |
| 20260503020431 | 40 | 203 | 0.0 | 0.0 | 0.00 | 0.00 | 0.00 | 60 | 1015.4 |
| 20260503015927 | 41 | 202 | 0.0 | 0.0 | 0.00 | 0.00 | 0.00 | 58 | 1015.4 |
| 20260503015424 | 41 | 202 | 0.0 | 0.0 | 0.00 | 0.00 | 0.00 | 59 | 1015.3 |
| 20260503014920 | 41 | 202 | 0.0 | 0.0 | 0.00 | 0.00 | 0.00 | 60 | 1015.1 |
| 20260503014417 | 41 | 202 | 0.0 | 0.0 | 0.00 | 0.00 | 0.00 | 58 | 1015.3 |
| 20260503013915 | 41 | 202 | 0.0 | 0.0 | 0.00 | 0.00 | 0.00 | 57 | 1015.3 |
| 20260503013412 | 42 | 202 | 0.0 | 0.0 | 0.00 | 0.00 | 0.00 | 57 | 1015.4 |
| 20260503012909 | 42 | 202 | 0.0 | 0.0 | 0.00 | 0.00 | 0.00 | 58 | 1015.3 |
| 20260503012407 | 42 | 202 | 0.0 | 0.0 | 0.00 | 0.00 | 0.00 | 54 | 1015.3 |
| 20260503011903 | 43 | 202 | 0.0 | 0.0 | 0.00 | 0.00 | 0.00 | 55 | 1015.3 |
| 20260503011400 | 43 | 202 | 0.0 | 0.0 | 0.00 | 0.00 | 0.00 | 53 | 1015.3 |
| 20260503010857 | 43 | 202 | 0.0 | 0.0 | 0.00 | 0.00 | 0.00 | 51 | 1015.1 |
| 20260503010354 | 44 | 202 | 0.0 | 0.0 | 0.00 | 0.00 | 0.00 | 51 | 1015.1 |
| 20260503005850 | 44 | 202 | 0.0 | 0.0 | 0.00 | 0.00 | 0.00 | 51 | 1015.1 |
| 20260503005348 | 45 | 202 | 0.0 | 0.0 | 0.00 | 0.00 | 0.00 | 50 | 1015.4 |
| 20260503004844 | 45 | 202 | 0.0 | 0.0 | 0.00 | 0.00 | 0.00 | 51 | 1015.4 |
| 20260503004342 | 46 | 202 | 0.0 | 0.0 | 0.00 | 0.00 | 0.00 | 48 | 1015.3 |
| 20260503003839 | 46 | 202 | 0.0 | 0.0 | 0.00 | 0.00 | 0.00 | 47 | 1015.4 |
| 20260503003336 | 47 | 202 | 0.0 | 0.0 | 0.00 | 0.00 | 0.00 | 46 | 1015.4 |
| 20260503002833 | 48 | 202 | 0.0 | 0.0 | 0.00 | 0.00 | 0.00 | 43 | 1015.4 |
| 20260503002330 | 47 | 202 | 0.9 | 0.9 | 0.00 | 0.00 | 0.00 | 41 | 1015.4 |
| 20260503001826 | 48 | 211 | 0.0 | 0.0 | 0.00 | 0.00 | 0.00 | 41 | 1015.5 |
| 20260503001323 | 48 | 211 | 0.0 | 0.0 | 0.00 | 0.00 | 0.00 | 41 | 1015.5 |
| 20260503000820 | 48 | 211 | 0.0 | 0.0 | 0.00 | 0.00 | 0.00 | 39 | 1015.5 |